Regional Weather Roundup
Issued by NWS

Home | Current Version | Previous Version | Graphics & Text | Print | Product List | Glossary On
Versions: 1 2 3 4 5 6 7 8 9 10 11 12 13 14 15 16 17 18 19 20 21 22 23 24 25 26 27 28 29 30 31 32 33 34 35 36 37 38 39 40 41 42 43 44 45 46 47 48 49 50
282
ASUS44 KJAN 301010
RWRMS

MISSISSIPPI HOURLY WEATHER ROUNDUP
NATIONAL WEATHER SERVICE JACKSON MS
500 AM CDT SAT AUG 30 2014

NOTE: "FAIR: INDICATES FEW OR NO CLOUDS BELOW 12,000 FEET WITH NO
SIGNIFICANT WEATHER AND/OR OBSTRUCTIONS TO VISIBILITY.

MSZ001>002-007>008-010>013-018>021-025>028-034>036-301100-
NORTHWEST MISSISSIPPI

CITY           SKY/WX    TMP DP  RH WIND       PRES   REMARKS
CLARKSDALE       N/A     77  75  94 CALM      30.00S
CLEVELAND      CLOUDY    76  75  97 S5        29.99S
GREENWOOD      CLOUDY    76  71  85 S6        30.01S
GREENVILLE     CLOUDY    76  74  93 S5        29.98F
GRENADA        FAIR      73  70  88 CALM      30.02S
OLIVE BRANCH   CLEAR     73  73 100 S6        30.01S
OXFORD         FAIR      75  68  78 S3        30.05R
TUNICA         LGT RAIN  75  72  88 S5        30.00S
$$

MSZ003>006-009-014>017-022>024-029>033-037>039-301100-
NORTHEAST MISSISSIPPI

CITY           SKY/WX    TMP DP  RH WIND       PRES   REMARKS
BELMONT        FAIR      73  67  83 CALM      30.05S
COLUMBUS AFB   CLOUDY    76  69  79 S5        30.04S
CORINTH        FAIR      73  68  83 S7        30.02S
GOLDN TRIANGLE CLOUDY    75  68  78 S3        30.04F
STARKVILLE     PTSUNNY   73  70  88 CALM      30.04S
TUPELO         CLOUDY    76  68  76 S6        30.03R
$$

MSZ040-058-301100-
CENTRAL MISSISSIPPI

CITY           SKY/WX    TMP DP  RH WIND       PRES   REMARKS
JACKSON INTL   HVY RAIN  75  73  93 S5        30.03R FOG
JACKSON HAWKNS RAIN      76  73  91 S8        30.04R FOG
MERIDIAN KEY   CLOUDY    75  72  90 S5        30.04S
MERIDIAN NAS   CLOUDY    76  72  87 CALM      30.04S
RAYMOND        FAIR      73  68  83 MISG      30.02S
VICKSBURG      LGT RAIN  76  73  91 S5        30.01R
$$

MSZ059>079-301100-
SOUTH MISSISSIPPI

CITY           SKY/WX    TMP DP  RH WIND       PRES   REMARKS
BROOKHAVEN     FAIR      73  73 100 CALM      30.05R
COLUMBIA       PTSUNNY   73  73 100 CALM      30.02R
HATTIESBURG    CLOUDY    76  74  93 CALM      30.04R
MCCOMB         CLOUDY    75  73  93 CALM      30.02S
NATCHEZ        CLOUDY    75  72  88 SE6       30.01S
PINE BELT      CLOUDY    75  72  88 CALM      30.04S
$$

MSZ080>082-301100-
COASTAL MISSISSIPPI

CITY           SKY/WX    TMP DP  RH WIND       PRES   REMARKS
BILOXI         CLOUDY    82  76  82 S8        30.02R HX  90
PASCAGOULA     CLOUDY    76  74  93 CALM      30.03R
GULFPORT       MOCLDY    82  76  81 S8        30.01R
$$



USA.gov is the U.S. government's official web portal to all federal, state and local government web resources and services.